| time (UTC) | temp F | wind direction | speed MPH | gust MPH | rain 1hr in | rain 24hr in | rain mn in | humidity % | barometer mb |
| 20260831073333 | 76 | 74 | 0.0 | 3.0 | 0.00 | 0.00 | 0.00 | 70 | 1014.7 |
| 20260831071835 | 76 | 69 | 0.0 | 2.0 | 0.00 | 0.00 | 0.00 | 72 | 1014.6 |
| 20260831070331 | 75 | 69 | 0.0 | 0.0 | 0.00 | 0.00 | 0.00 | 73 | 1014.7 |
| 20260831064846 | 74 | 64 | 1.0 | 3.0 | 0.00 | 0.00 | 0.00 | 75 | 1014.6 |
| 20260831063335 | 73 | 64 | 0.0 | 3.0 | 0.00 | 0.00 | 0.00 | 77 | 1014.7 |
| 20260831061830 | 72 | 65 | 2.0 | 3.0 | 0.00 | 0.00 | 0.00 | 78 | 1014.7 |
| 20260831060330 | 71 | 65 | 0.0 | 1.0 | 0.00 | 0.00 | 0.00 | 78 | 1014.7 |
| 20260831054825 | 70 | 44 | 1.0 | 3.0 | 0.00 | 0.00 | 0.00 | 79 | 1014.6 |
| 20260831053344 | 70 | 44 | 1.0 | 5.0 | 0.00 | 0.00 | 0.00 | 80 | 1014.6 |
| 20260831051838 | 69 | 43 | 2.0 | 4.0 | 0.00 | 0.00 | 0.00 | 80 | 1014.4 |
| 20260831050335 | 69 | 44 | 2.0 | 4.0 | 0.00 | 0.00 | 0.00 | 80 | 1014.3 |
| 20260831044829 | 69 | 355 | 0.0 | 5.0 | 0.00 | 0.00 | 0.00 | 80 | 1014.2 |
| 20260831043343 | 70 | 17 | 3.0 | 4.0 | 0.00 | 0.00 | 0.00 | 79 | 1014.2 |
| 20260831041839 | 70 | 57 | 2.0 | 4.0 | 0.00 | 0.00 | 0.00 | 78 | 1014.1 |
| 20260831040329 | 70 | 57 | 2.0 | 4.0 | 0.00 | 0.00 | 0.00 | 78 | 1014.2 |
| 20260831034825 | 71 | 57 | 3.0 | 4.0 | 0.00 | 0.00 | 0.00 | 78 | 1014.2 |
| 20260831033344 | 71 | 57 | 1.0 | 4.0 | 0.00 | 0.00 | 0.00 | 78 | 1014.3 |
| 20260831031835 | 71 | 59 | 2.0 | 3.0 | 0.00 | 0.00 | 0.00 | 77 | 1014.3 |
| 20260831030331 | 71 | 40 | 1.0 | 5.0 | 0.00 | 0.00 | 0.00 | 79 | 1014.5 |
| 20260831024842 | 70 | 60 | 3.0 | 4.0 | 0.00 | 0.00 | 0.00 | 79 | 1014.5 |
| 20260831023337 | 70 | 60 | 2.0 | 4.0 | 0.00 | 0.00 | 0.00 | 78 | 1014.3 |
| 20260831021842 | 70 | 60 | 1.0 | 4.0 | 0.00 | 0.00 | 0.00 | 78 | 1014.3 |
| 20260831020332 | 71 | 74 | 2.0 | 3.0 | 0.00 | 0.00 | 0.00 | 77 | 1014.3 |
| 20260831014845 | 71 | 61 | 2.0 | 4.0 | 0.00 | 0.00 | 0.00 | 77 | 1014.4 |
| 20260831013335 | 71 | 72 | 3.0 | 4.0 | 0.00 | 0.00 | 0.00 | 76 | 1014.6 |
| 20260831011831 | 71 | 41 | 2.0 | 5.0 | 0.00 | 0.00 | 0.00 | 75 | 1014.6 |
| 20260831010342 | 72 | 51 | 0.0 | 0.0 | 0.00 | 0.00 | 0.00 | 74 | 1014.5 |
| 20260831004837 | 72 | 51 | 0.0 | 3.0 | 0.00 | 0.00 | 0.00 | 73 | 1014.4 |
| 20260831003340 | 73 | 51 | 1.0 | 3.0 | 0.00 | 0.00 | 0.00 | 73 | 1014.5 |
| 20260831001832 | 73 | 50 | 0.0 | 3.0 | 0.00 | 0.00 | 0.00 | 73 | 1014.6 |
| 20260831000328 | 73 | 51 | 0.0 | 4.0 | 0.00 | 0.00 | 0.00 | 73 | 1014.7 |
| 20260830234847 | 72 | 51 | 1.0 | 3.0 | 0.00 | 0.00 | 0.00 | 74 | 1014.8 |
| 20260830233346 | 72 | 51 | 2.0 | 3.0 | 0.00 | 0.00 | 0.00 | 72 | 1014.8 |
| 20260830231842 | 73 | 51 | 0.0 | 2.0 | 0.00 | 0.00 | 0.00 | 71 | 1014.8 |
| 20260830230341 | 73 | 51 | 0.0 | 1.0 | 0.00 | 0.00 | 0.00 | 70 | 1014.9 |
| 20260830224836 | 73 | 51 | 0.0 | 0.0 | 0.00 | 0.00 | 0.00 | 70 | 1015.0 |
| 20260830223334 | 74 | 51 | 0.0 | 0.0 | 0.00 | 0.00 | 0.00 | 70 | 1015.0 |
| 20260830221834 | 73 | 51 | 0.0 | 0.0 | 0.00 | 0.00 | 0.00 | 72 | 1014.9 |
| 20260830220344 | 73 | 52 | 0.0 | 4.0 | 0.00 | 0.00 | 0.00 | 72 | 1014.9 |
| 20260830214838 | 72 | 80 | 2.0 | 3.0 | 0.00 | 0.00 | 0.00 | 74 | 1014.8 |
| 20260830213330 | 72 | 80 | 0.0 | 1.0 | 0.00 | 0.00 | 0.00 | 74 | 1014.7 |
| 20260830211847 | 72 | 80 | 1.0 | 3.0 | 0.00 | 0.00 | 0.00 | 74 | 1014.6 |
| 20260830210338 | 72 | 80 | 0.0 | 2.0 | 0.00 | 0.00 | 0.00 | 74 | 1014.6 |
| 20260830204840 | 72 | 80 | 1.0 | 3.0 | 0.00 | 0.00 | 0.00 | 74 | 1014.6 |
| 20260830203340 | 73 | 81 | 2.0 | 3.0 | 0.00 | 0.00 | 0.00 | 74 | 1014.6 |
| 20260830201842 | 73 | 81 | 2.0 | 4.0 | 0.00 | 0.00 | 0.00 | 74 | 1014.5 |
| 20260830200337 | 74 | 83 | 2.0 | 3.0 | 0.00 | 0.00 | 0.00 | 74 | 1014.4 |
| 20260830194836 | 74 | 82 | 2.0 | 3.0 | 0.00 | 0.00 | 0.00 | 74 | 1014.4 |
| 20260830193347 | 74 | 348 | 0.0 | 2.0 | 0.00 | 0.00 | 0.00 | 74 | 1014.2 |
| 20260830191843 | 75 | 315 | 0.0 | 0.0 | 0.00 | 0.00 | 0.00 | 74 | 1014.2 |
| 20260830190340 | 76 | 315 | 0.0 | 0.0 | 0.00 | 0.00 | 0.00 | 74 | 1014.2 |
| 20260830184829 | 77 | 315 | 0.0 | 0.0 | 0.00 | 0.00 | 0.00 | 70 | 1014.0 |
| 20260830183348 | 78 | 315 | 3.0 | 5.0 | 0.00 | 0.00 | 0.00 | 68 | 1013.9 |
| 20260830181840 | 79 | 240 | 0.0 | 0.0 | 0.00 | 0.00 | 0.00 | 64 | 1013.7 |
| 20260830180338 | 80 | 240 | 0.0 | 0.0 | 0.00 | 0.00 | 0.00 | 61 | 1013.6 |
| 20260830174833 | 81 | 240 | 0.0 | 0.0 | 0.00 | 0.00 | 0.00 | 59 | 1013.5 |
| 20260830173331 | 83 | 240 | 0.0 | 0.0 | 0.00 | 0.00 | 0.00 | 53 | 1013.4 |
| 20260830171833 | 83 | 240 | 0.0 | 1.0 | 0.00 | 0.00 | 0.00 | 47 | 1013.4 |
| 20260830170330 | 84 | 240 | 0.0 | 2.0 | 0.00 | 0.00 | 0.00 | 47 | 1013.3 |
| 20260830164842 | 84 | 240 | 1.0 | 3.0 | 0.00 | 0.00 | 0.00 | 46 | 1013.4 |
| 20260830163330 | 85 | 240 | 2.0 | 4.0 | 0.00 | 0.00 | 0.00 | 46 | 1013.5 |
| 20260830161842 | 86 | 239 | 0.0 | 3.0 | 0.00 | 0.00 | 0.00 | 44 | 1013.6 |
| 20260830160339 | 87 | 236 | 2.0 | 4.0 | 0.00 | 0.00 | 0.00 | 44 | 1013.5 |
| 20260830154836 | 86 | 242 | 5.0 | 5.0 | 0.00 | 0.00 | 0.00 | 46 | 1013.7 |
| 20260830153337 | 86 | 196 | 1.0 | 5.0 | 0.00 | 0.00 | 0.00 | 45 | 1013.7 |
| 20260830151830 | 86 | 238 | 0.0 | 5.0 | 0.00 | 0.00 | 0.00 | 46 | 1013.8 |
| 20260830150345 | 85 | 219 | 1.0 | 5.0 | 0.00 | 0.00 | 0.00 | 48 | 1013.8 |
| 20260830144840 | 86 | 229 | 1.0 | 5.0 | 0.00 | 0.00 | 0.00 | 52 | 1013.9 |
| 20260830143336 | 85 | 252 | 1.0 | 5.0 | 0.00 | 0.00 | 0.00 | 47 | 1014.0 |
| 20260830141846 | 86 | 231 | 4.0 | 9.0 | 0.00 | 0.00 | 0.00 | 46 | 1014.1 |
| 20260830140340 | 85 | 233 | 1.0 | 11.0 | 0.00 | 0.00 | 0.00 | 49 | 1014.2 |
| 20260830134840 | 84 | 186 | 3.0 | 5.0 | 0.00 | 0.00 | 0.00 | 48 | 1014.2 |
| 20260830133331 | 84 | 276 | 5.0 | 7.0 | 0.00 | 0.00 | 0.00 | 49 | 1014.3 |
| 20260830131833 | 84 | 306 | 2.0 | 5.0 | 0.00 | 0.00 | 0.00 | 49 | 1014.6 |
| 20260830130345 | 84 | 231 | 3.0 | 5.0 | 0.00 | 0.00 | 0.00 | 50 | 1014.7 |
| 20260830124848 | 84 | 117 | 2.0 | 5.0 | 0.00 | 0.00 | 0.00 | 51 | 1014.8 |
| 20260830123344 | 84 | 246 | 2.0 | 6.0 | 0.00 | 0.00 | 0.00 | 48 | 1014.9 |
| 20260830121835 | 83 | 276 | 3.0 | 8.0 | 0.00 | 0.00 | 0.00 | 51 | 1014.9 |
| 20260830120329 | 82 | 274 | 2.0 | 5.0 | 0.00 | 0.00 | 0.00 | 50 | 1015.0 |
| 20260830114829 | 82 | 232 | 1.0 | 7.0 | 0.00 | 0.00 | 0.00 | 50 | 1015.0 |
| 20260830113348 | 82 | 248 | 2.0 | 8.0 | 0.00 | 0.00 | 0.00 | 53 | 1015.1 |
| 20260830111838 | 82 | 235 | 5.0 | 9.0 | 0.00 | 0.00 | 0.00 | 56 | 1015.2 |
| 20260830110348 | 81 | 284 | 5.0 | 7.0 | 0.00 | 0.00 | 0.00 | 58 | 1015.4 |
| 20260830104843 | 80 | 246 | 3.0 | 7.0 | 0.00 | 0.00 | 0.00 | 59 | 1015.5 |
| 20260830103332 | 79 | 299 | 2.0 | 6.0 | 0.00 | 0.00 | 0.00 | 62 | 1015.6 |
| 20260830101845 | 79 | 238 | 4.0 | 7.0 | 0.00 | 0.00 | 0.00 | 63 | 1015.8 |
| 20260830100330 | 78 | 215 | 1.0 | 7.0 | 0.00 | 0.00 | 0.00 | 64 | 1016.0 |
| 20260830094839 | 77 | 222 | 3.0 | 6.0 | 0.00 | 0.00 | 0.00 | 66 | 1016.0 |
| 20260830093335 | 77 | 214 | 1.0 | 6.0 | 0.00 | 0.00 | 0.00 | 69 | 1016.0 |
| 20260830091829 | 76 | 255 | 0.0 | 5.0 | 0.00 | 0.00 | 0.00 | 71 | 1016.1 |
| 20260830090341 | 76 | 229 | 4.0 | 6.0 | 0.00 | 0.00 | 0.00 | 72 | 1016.2 |
| 20260830084837 | 75 | 221 | 0.0 | 6.0 | 0.00 | 0.00 | 0.00 | 71 | 1016.2 |
| 20260830083332 | 75 | 242 | 4.0 | 7.0 | 0.00 | 0.00 | 0.00 | 72 | 1016.1 |
| 20260830081844 | 74 | 246 | 3.0 | 6.0 | 0.00 | 0.00 | 0.00 | 71 | 1016.2 |
| 20260830080343 | 74 | 239 | 2.0 | 5.0 | 0.00 | 0.00 | 0.00 | 71 | 1016.1 |
| 20260830074848 | 74 | 195 | 2.0 | 5.0 | 0.00 | 0.00 | 0.00 | 71 | 1016.1 |